Terminal Aerodrome Forecast
Issued by NWS Grand Forks, ND

Home | Current Version | Previous Version | Graphics & Text | Print | Product List | Glossary On
Versions: 1 2 3 4 5 6 7 8 9 10 11 12 13 14 15 16
988
FTUS43 KFGF 051120
TAFGFK
TAF
KGFK 051120Z 0512/0612 18007KT P6SM FEW100 WS010/27040KT
     FM051400 24011KT P6SM SKC
     FM051800 25016G24KT P6SM SKC
     FM052300 24012KT P6SM SKC
     FM060100 23008KT P6SM SKC=

USA.gov is the U.S. government's official web portal to all federal, state and local government web resources and services.